Year,Month,Day,Hour,Minute,Value (Times are PST for temperature in C)
2015,02,17,00,00,-0.10
2015,02,17,00,01,-0.10
2015,02,17,00,02,-0.10
2015,02,17,00,03,-0.10
2015,02,17,00,04,-0.10
2015,02,17,00,05,-0.20
2015,02,17,00,06,-0.20
2015,02,17,00,07,-0.20
2015,02,17,00,08,-0.20
2015,02,17,00,09,-0.20
2015,02,17,00,10,-0.20
2015,02,17,00,11,-0.20
2015,02,17,00,12,-0.20
2015,02,17,00,13,-0.20
2015,02,17,00,14,-0.20
2015,02,17,00,15,-0.20
2015,02,17,00,16,-0.20
2015,02,17,00,17,-0.20
2015,02,17,00,18,-0.20
2015,02,17,00,19,-0.20
2015,02,17,00,20,-0.20
2015,02,17,00,21,-0.20
2015,02,17,00,22,-0.20
2015,02,17,00,23,-0.30
2015,02,17,00,24,-0.30
2015,02,17,00,25,-0.30
2015,02,17,00,26,-0.30
2015,02,17,00,27,-0.30
2015,02,17,00,28,-0.30
2015,02,17,00,29,-0.30
2015,02,17,00,30,-0.30
2015,02,17,00,31,-0.30
2015,02,17,00,32,-0.30
2015,02,17,00,33,-0.30
2015,02,17,00,34,-0.30
2015,02,17,00,35,-0.30
2015,02,17,00,36,-0.30
2015,02,17,00,37,-0.30
2015,02,17,00,38,-0.40
2015,02,17,00,39,-0.40
2015,02,17,00,40,-0.40
2015,02,17,00,41,-0.40
2015,02,17,00,42,-0.40
2015,02,17,00,43,-0.40
2015,02,17,00,44,-0.40
2015,02,17,00,45,-0.40
2015,02,17,00,46,-0.40
2015,02,17,00,47,-0.40
2015,02,17,00,48,-0.40
2015,02,17,00,49,-0.40
2015,02,17,00,50,-0.40
2015,02,17,00,51,-0.50
2015,02,17,00,52,-0.40
2015,02,17,00,53,-0.50
2015,02,17,00,54,-0.50
2015,02,17,00,55,-0.50
2015,02,17,00,56,-0.50
2015,02,17,00,57,-0.50
2015,02,17,00,58,-0.60
2015,02,17,00,59,-0.60
2015,02,17,01,00,-0.60
2015,02,17,01,01,-0.60
2015,02,17,01,02,-0.60
2015,02,17,01,03,-0.60
2015,02,17,01,04,-0.60
2015,02,17,01,05,-0.60
2015,02,17,01,06,-0.60
2015,02,17,01,07,-0.60
2015,02,17,01,08,-0.70
2015,02,17,01,09,-0.70
2015,02,17,01,10,-0.70
2015,02,17,01,11,-0.70
2015,02,17,01,12,-0.70
2015,02,17,01,13,-0.70
2015,02,17,01,14,-0.70
2015,02,17,01,15,-0.70
2015,02,17,01,16,-0.70
2015,02,17,01,17,-0.70
2015,02,17,01,18,-0.70
2015,02,17,01,19,-0.70
2015,02,17,01,20,-0.70
2015,02,17,01,21,-0.70
2015,02,17,01,22,-0.70
2015,02,17,01,23,-0.70
2015,02,17,01,24,-0.70
2015,02,17,01,25,-0.80
2015,02,17,01,26,-0.70
2015,02,17,01,27,-0.80
2015,02,17,01,28,-0.80
2015,02,17,01,29,-0.70
2015,02,17,01,30,-0.80
2015,02,17,01,31,-0.80
2015,02,17,01,32,-0.80
2015,02,17,01,33,-0.80
2015,02,17,01,34,-0.80
2015,02,17,01,35,-0.80
2015,02,17,01,36,-0.80
2015,02,17,01,37,-0.80
2015,02,17,01,38,-0.80
2015,02,17,01,39,-0.80
2015,02,17,01,40,-0.80
2015,02,17,01,41,-0.80
2015,02,17,01,42,-0.80
2015,02,17,01,43,-0.80
2015,02,17,01,44,-0.80
2015,02,17,01,45,-0.90
2015,02,17,01,46,-0.90
2015,02,17,01,47,-0.80
2015,02,17,01,48,-0.90
2015,02,17,01,49,-0.90
2015,02,17,01,50,-0.90
2015,02,17,01,51,-0.80
2015,02,17,01,52,-0.80
2015,02,17,01,53,-0.80
2015,02,17,01,54,-0.80
2015,02,17,01,55,-0.80
2015,02,17,01,56,-0.80
2015,02,17,01,57,-0.80
2015,02,17,01,58,-0.90
2015,02,17,01,59,-0.90
2015,02,17,02,00,-0.90
2015,02,17,02,01,-0.90
2015,02,17,02,02,-0.90
2015,02,17,02,03,-0.90
2015,02,17,02,04,-0.90
2015,02,17,02,05,-0.90
2015,02,17,02,06,-0.90
2015,02,17,02,07,-0.90
2015,02,17,02,08,-0.90
2015,02,17,02,09,-0.90
2015,02,17,02,10,-0.90
2015,02,17,02,11,-0.90
2015,02,17,02,12,-1.00
2015,02,17,02,13,-1.00
2015,02,17,02,14,-1.00
2015,02,17,02,15,-1.00
2015,02,17,02,16,-1.00
2015,02,17,02,17,-1.00
2015,02,17,02,18,-1.00
2015,02,17,02,19,-1.00
2015,02,17,02,20,-1.00
2015,02,17,02,21,-1.00
2015,02,17,02,22,-1.00
2015,02,17,02,23,-1.00
2015,02,17,02,24,-1.00
2015,02,17,02,25,-1.00
2015,02,17,02,26,-1.00
2015,02,17,02,27,-1.00
2015,02,17,02,28,-1.00
2015,02,17,02,29,-1.00
2015,02,17,02,30,-1.00
2015,02,17,02,31,-1.00
2015,02,17,02,32,-1.00
2015,02,17,02,33,-1.00
2015,02,17,02,34,-1.00
2015,02,17,02,35,-1.00
2015,02,17,02,36,-1.00
2015,02,17,02,37,-1.00
2015,02,17,02,38,-1.00
2015,02,17,02,39,-1.00
2015,02,17,02,40,-1.00
2015,02,17,02,41,-1.00
2015,02,17,02,42,-1.00
2015,02,17,02,43,-1.00
2015,02,17,02,44,-1.00
2015,02,17,02,45,-1.00
2015,02,17,02,46,-1.00
2015,02,17,02,47,-1.00
2015,02,17,02,48,-1.00
2015,02,17,02,49,-1.00
2015,02,17,02,50,-1.00
2015,02,17,02,51,-1.00
2015,02,17,02,52,-1.00
2015,02,17,02,53,-1.10
2015,02,17,02,54,-1.10
2015,02,17,02,55,-1.10
2015,02,17,02,56,-1.10
2015,02,17,02,57,-1.10
2015,02,17,02,58,-1.10
2015,02,17,02,59,-1.10
2015,02,17,03,00,-1.10
2015,02,17,03,01,-1.10
2015,02,17,03,02,-1.10
2015,02,17,03,03,-1.10
2015,02,17,03,04,-1.10
2015,02,17,03,05,-1.10
2015,02,17,03,06,-1.10
2015,02,17,03,07,-1.10
2015,02,17,03,08,-1.10
2015,02,17,03,09,-1.10
2015,02,17,03,10,-1.10
2015,02,17,03,11,-1.10
2015,02,17,03,12,-1.10
2015,02,17,03,13,-1.10
2015,02,17,03,14,-1.10
2015,02,17,03,15,-1.10
2015,02,17,03,16,-1.10
2015,02,17,03,17,-1.10
2015,02,17,03,18,-1.10
2015,02,17,03,19,-1.10
2015,02,17,03,20,-1.20
2015,02,17,03,21,-1.20
2015,02,17,03,22,-1.20
2015,02,17,03,23,-1.20
2015,02,17,03,24,-1.20
2015,02,17,03,25,-1.20
2015,02,17,03,26,-1.20
2015,02,17,03,27,-1.20
2015,02,17,03,28,-1.20
2015,02,17,03,29,-1.20
2015,02,17,03,30,-1.10
2015,02,17,03,31,-1.10
2015,02,17,03,32,-1.10
2015,02,17,03,33,-1.10
2015,02,17,03,34,-1.10
2015,02,17,03,35,-1.10
2015,02,17,03,36,-1.10
2015,02,17,03,37,-1.10
2015,02,17,03,38,-1.10
2015,02,17,03,39,-1.10
2015,02,17,03,40,-1.10
2015,02,17,03,41,-1.10
2015,02,17,03,42,-1.10
2015,02,17,03,43,-1.10
2015,02,17,03,44,-1.00
2015,02,17,03,45,-1.00
2015,02,17,03,46,-1.00
2015,02,17,03,47,-1.00
2015,02,17,03,48,-0.90
2015,02,17,03,49,-0.90
2015,02,17,03,50,-0.90
2015,02,17,03,51,-0.90
2015,02,17,03,52,-0.90
2015,02,17,03,53,-0.90
2015,02,17,03,54,-0.90
2015,02,17,03,55,-0.90
2015,02,17,03,56,-0.80
2015,02,17,03,57,-0.80
2015,02,17,03,58,-0.80
2015,02,17,03,59,-0.80
2015,02,17,04,00,-0.80
2015,02,17,04,01,-0.80
2015,02,17,04,02,-0.80
2015,02,17,04,03,-0.80
2015,02,17,04,04,-0.80
2015,02,17,04,05,-0.80
2015,02,17,04,06,-0.80
2015,02,17,04,07,-0.80
2015,02,17,04,08,-0.80
2015,02,17,04,09,-0.80
2015,02,17,04,10,-0.80
2015,02,17,04,11,-0.80
2015,02,17,04,12,-0.80
2015,02,17,04,13,-0.80
2015,02,17,04,14,-0.80
2015,02,17,04,15,-0.80
2015,02,17,04,16,-0.90
2015,02,17,04,17,-0.90
2015,02,17,04,18,-0.90
2015,02,17,04,19,-0.90
2015,02,17,04,20,-0.90
2015,02,17,04,21,-0.90
2015,02,17,04,22,-0.90
2015,02,17,04,23,-0.90
2015,02,17,04,24,-0.90
2015,02,17,04,25,-0.90
2015,02,17,04,26,-1.00
2015,02,17,04,27,-1.00
2015,02,17,04,28,-1.00
2015,02,17,04,29,-1.00
2015,02,17,04,30,-1.10
2015,02,17,04,31,-1.10
2015,02,17,04,32,-1.10
2015,02,17,04,33,-1.10
2015,02,17,04,34,-1.10
2015,02,17,04,35,-1.10
2015,02,17,04,36,-1.10
2015,02,17,04,37,-1.10
2015,02,17,04,38,-1.10
2015,02,17,04,39,-1.10
2015,02,17,04,40,-1.10
2015,02,17,04,41,-1.10
2015,02,17,04,42,-1.10
2015,02,17,04,43,-1.10
2015,02,17,04,44,-1.20
2015,02,17,04,45,-1.20
2015,02,17,04,46,-1.20
2015,02,17,04,47,-1.20
2015,02,17,04,48,-1.20
2015,02,17,04,49,-1.20
2015,02,17,04,50,-1.20
2015,02,17,04,51,-1.20
2015,02,17,04,52,-1.20
2015,02,17,04,53,-1.20
2015,02,17,04,54,-1.20
2015,02,17,04,55,-1.20
2015,02,17,04,56,-1.20
2015,02,17,04,57,-1.20
2015,02,17,04,58,-1.20
2015,02,17,04,59,-1.20
2015,02,17,05,00,-1.20
2015,02,17,05,01,-1.20
2015,02,17,05,02,-1.20
2015,02,17,05,03,-1.20
2015,02,17,05,04,-1.20
2015,02,17,05,05,-1.20
2015,02,17,05,06,-1.20
2015,02,17,05,07,-1.20
2015,02,17,05,08,-1.20
2015,02,17,05,09,-1.20
2015,02,17,05,10,-1.20
2015,02,17,05,11,-1.20
2015,02,17,05,12,-1.20
2015,02,17,05,13,-1.20
2015,02,17,05,14,-1.20
2015,02,17,05,15,-1.20
2015,02,17,05,16,-1.20
2015,02,17,05,17,-1.20
2015,02,17,05,18,-1.20
2015,02,17,05,19,-1.20
2015,02,17,05,20,-1.20
2015,02,17,05,21,-1.20
2015,02,17,05,22,-1.20
2015,02,17,05,23,-1.20
2015,02,17,05,24,-1.20
2015,02,17,05,25,-1.20
2015,02,17,05,26,-1.20
2015,02,17,05,27,-1.20
2015,02,17,05,28,-1.30
2015,02,17,05,29,-1.30
2015,02,17,05,30,-1.30
2015,02,17,05,31,-1.30
2015,02,17,05,32,-1.30
2015,02,17,05,33,-1.30
2015,02,17,05,34,-1.30
2015,02,17,05,35,-1.30
2015,02,17,05,36,-1.30
2015,02,17,05,37,-1.30
2015,02,17,05,38,-1.30
2015,02,17,05,39,-1.30
2015,02,17,05,40,-1.30
2015,02,17,05,41,-1.30
2015,02,17,05,42,-1.30
2015,02,17,05,43,-1.30
2015,02,17,05,44,-1.30
2015,02,17,05,45,-1.30
2015,02,17,05,46,-1.30
2015,02,17,05,47,-1.30
2015,02,17,05,48,-1.30
2015,02,17,05,49,-1.30
2015,02,17,05,50,-1.30
2015,02,17,05,51,-1.30
2015,02,17,05,52,-1.30
2015,02,17,05,53,-1.30
2015,02,17,05,54,-1.30
2015,02,17,05,55,-1.30
2015,02,17,05,56,-1.30
2015,02,17,05,57,-1.30
2015,02,17,05,58,-1.30
2015,02,17,05,59,-1.30
2015,02,17,06,00,-1.30
2015,02,17,06,01,-1.30
2015,02,17,06,02,-1.30
2015,02,17,06,03,-1.30
2015,02,17,06,04,-1.30
2015,02,17,06,05,-1.30
2015,02,17,06,06,-1.30
2015,02,17,06,07,-1.30
2015,02,17,06,08,-1.30
2015,02,17,06,09,-1.30
2015,02,17,06,10,-1.30
2015,02,17,06,11,-1.30
2015,02,17,06,12,-1.40
2015,02,17,06,13,-1.40
2015,02,17,06,14,-1.40
2015,02,17,06,15,-1.40
2015,02,17,06,16,-1.40
2015,02,17,06,17,-1.40
2015,02,17,06,18,-1.40
2015,02,17,06,19,-1.40
2015,02,17,06,20,-1.40
2015,02,17,06,21,-1.40
2015,02,17,06,22,-1.40
2015,02,17,06,23,-1.40
2015,02,17,06,24,-1.40
2015,02,17,06,25,-1.40
2015,02,17,06,26,-1.40
2015,02,17,06,27,-1.40
2015,02,17,06,28,-1.40
2015,02,17,06,29,-1.40
2015,02,17,06,30,-1.40
2015,02,17,06,31,-1.40
2015,02,17,06,32,-1.40
2015,02,17,06,33,-1.40
2015,02,17,06,34,-1.40
2015,02,17,06,35,-1.40
2015,02,17,06,36,-1.40
2015,02,17,06,37,-1.40
2015,02,17,06,38,-1.40
2015,02,17,06,39,-1.40
2015,02,17,06,40,-1.40
2015,02,17,06,41,-1.40
2015,02,17,06,42,-1.40
2015,02,17,06,43,-1.40
2015,02,17,06,44,-1.40
2015,02,17,06,45,-1.40
2015,02,17,06,46,-1.40
2015,02,17,06,47,-1.40
2015,02,17,06,48,-1.40
2015,02,17,06,49,-1.40
2015,02,17,06,50,-1.40
2015,02,17,06,51,-1.40
2015,02,17,06,52,-1.40
2015,02,17,06,53,-1.40
2015,02,17,06,54,-1.40
2015,02,17,06,55,-1.40
2015,02,17,06,56,-1.40
2015,02,17,06,57,-1.40
2015,02,17,06,58,-1.40
2015,02,17,06,59,-1.40
2015,02,17,07,00,-1.40
2015,02,17,07,01,-1.40
2015,02,17,07,02,-1.40
2015,02,17,07,03,-1.40
2015,02,17,07,04,-1.40
2015,02,17,07,05,-1.40
2015,02,17,07,06,-1.30
2015,02,17,07,07,-1.30
2015,02,17,07,08,-1.30
2015,02,17,07,09,-1.30
2015,02,17,07,10,-1.30
2015,02,17,07,11,-1.30
2015,02,17,07,12,-1.30
2015,02,17,07,13,-1.30
2015,02,17,07,14,-1.30
2015,02,17,07,15,-1.30
2015,02,17,07,16,-1.30
2015,02,17,07,17,-1.30
2015,02,17,07,18,-1.30
2015,02,17,07,19,-1.30
2015,02,17,07,20,-1.30
2015,02,17,07,21,-1.30
2015,02,17,07,22,-1.30
2015,02,17,07,23,-1.30
2015,02,17,07,24,-1.30
2015,02,17,07,25,-1.30
2015,02,17,07,26,-1.30
2015,02,17,07,27,-1.30
2015,02,17,07,28,-1.30
2015,02,17,07,29,-1.30
2015,02,17,07,30,-1.30
2015,02,17,07,31,-1.30
2015,02,17,07,32,-1.30
2015,02,17,07,33,-1.30
2015,02,17,07,34,-1.30
2015,02,17,07,35,-1.30
2015,02,17,07,36,-1.30
2015,02,17,07,37,-1.30
2015,02,17,07,38,-1.30
2015,02,17,07,39,-1.30
2015,02,17,07,40,-1.30
2015,02,17,07,41,-1.30
2015,02,17,07,42,-1.30
2015,02,17,07,43,-1.30
2015,02,17,07,44,-1.30
2015,02,17,07,45,-1.30
2015,02,17,07,46,-1.30
2015,02,17,07,47,-1.30
2015,02,17,07,48,-1.30
2015,02,17,07,49,-1.30
2015,02,17,07,50,-1.30
2015,02,17,07,51,-1.30
2015,02,17,07,52,-1.30
2015,02,17,07,53,-1.30
2015,02,17,07,54,-1.30
2015,02,17,07,55,-1.30
2015,02,17,07,56,-1.30
2015,02,17,07,57,-1.30
2015,02,17,07,58,-1.30
2015,02,17,07,59,-1.30
2015,02,17,08,00,-1.30
2015,02,17,08,01,-1.30
2015,02,17,08,02,-1.30
2015,02,17,08,03,-1.30
2015,02,17,08,04,-1.30
2015,02,17,08,05,-1.30
2015,02,17,08,06,-1.30
2015,02,17,08,07,-1.20
2015,02,17,08,08,-1.20
2015,02,17,08,09,-1.20
2015,02,17,08,10,-1.20
2015,02,17,08,11,-1.20
2015,02,17,08,12,-1.20
2015,02,17,08,13,-1.10
2015,02,17,08,14,-1.10
2015,02,17,08,15,-1.10
2015,02,17,08,16,-1.10
2015,02,17,08,17,-1.10
2015,02,17,08,18,-1.10
2015,02,17,08,19,-1.10
2015,02,17,08,20,-1.00
2015,02,17,08,21,-1.00
2015,02,17,08,22,-1.00
2015,02,17,08,23,-1.00
2015,02,17,08,24,-0.90
2015,02,17,08,25,-0.90
2015,02,17,08,26,-0.90
2015,02,17,08,27,-0.90
2015,02,17,08,28,-0.80
2015,02,17,08,29,-0.80
2015,02,17,08,30,-0.80
2015,02,17,08,31,-0.70
2015,02,17,08,32,-0.70
2015,02,17,08,33,-0.70
2015,02,17,08,34,-0.60
2015,02,17,08,35,-0.50
2015,02,17,08,36,-0.50
2015,02,17,08,37,-0.40
2015,02,17,08,38,-0.40
2015,02,17,08,39,-0.30
2015,02,17,08,40,-0.30
2015,02,17,08,41,-0.20
2015,02,17,08,42,-0.20
2015,02,17,08,43,-0.20
2015,02,17,08,44,-0.20
2015,02,17,08,45,-0.20
2015,02,17,08,46,-0.20
2015,02,17,08,47,-0.20
2015,02,17,08,48,-0.20
2015,02,17,08,49,-0.10
2015,02,17,08,50,-0.10
2015,02,17,08,51,-0.10
2015,02,17,08,52,0.00
2015,02,17,08,53,0.00
2015,02,17,08,54,0.10
2015,02,17,08,55,0.10
2015,02,17,08,56,0.20
2015,02,17,08,57,0.30
2015,02,17,08,58,0.40
2015,02,17,08,59,0.40
2015,02,17,09,00,0.50
2015,02,17,09,01,0.60
2015,02,17,09,02,0.70
2015,02,17,09,03,0.80
2015,02,17,09,04,0.90
2015,02,17,09,05,1.00
2015,02,17,09,06,1.10
2015,02,17,09,07,1.20
2015,02,17,09,08,1.30
2015,02,17,09,09,1.30
2015,02,17,09,10,1.50
2015,02,17,09,11,1.70
2015,02,17,09,12,1.80
2015,02,17,09,13,1.90
2015,02,17,09,14,2.00
2015,02,17,09,15,2.10
2015,02,17,09,16,2.10
2015,02,17,09,17,2.20
2015,02,17,09,18,2.20
2015,02,17,09,19,2.20
2015,02,17,09,20,2.20
2015,02,17,09,21,2.20
2015,02,17,09,22,2.20
2015,02,17,09,23,2.30
2015,02,17,09,24,2.30
2015,02,17,09,25,2.40
2015,02,17,09,26,2.50
2015,02,17,09,27,2.50
2015,02,17,09,28,2.60
2015,02,17,09,29,2.70
2015,02,17,09,30,2.70
2015,02,17,09,31,2.90
2015,02,17,09,32,3.00
2015,02,17,09,33,3.10
2015,02,17,09,34,3.30
2015,02,17,09,35,3.40
2015,02,17,09,36,3.50
2015,02,17,09,37,3.70
2015,02,17,09,38,3.80
2015,02,17,09,39,3.90
2015,02,17,09,40,4.10
2015,02,17,09,41,4.20
2015,02,17,09,42,4.30
2015,02,17,09,43,4.40
2015,02,17,09,44,4.50
2015,02,17,09,45,4.60
2015,02,17,09,46,4.70
2015,02,17,09,47,4.80
2015,02,17,09,48,5.00
2015,02,17,09,49,5.10
2015,02,17,09,50,5.10
2015,02,17,09,51,5.20
2015,02,17,09,52,5.20
2015,02,17,09,53,5.30
2015,02,17,09,54,5.30
2015,02,17,09,55,5.40
2015,02,17,09,56,5.40
2015,02,17,09,57,5.50
2015,02,17,09,58,5.60
2015,02,17,09,59,5.70
2015,02,17,10,00,5.70
2015,02,17,10,01,5.80
2015,02,17,10,02,5.80
2015,02,17,10,03,5.90
2015,02,17,10,04,6.00
2015,02,17,10,05,6.00
2015,02,17,10,06,6.10
2015,02,17,10,07,6.20
2015,02,17,10,08,6.30
2015,02,17,10,09,6.40
2015,02,17,10,10,6.50
2015,02,17,10,11,6.60
2015,02,17,10,12,6.70
2015,02,17,10,13,6.80
2015,02,17,10,14,6.90
2015,02,17,10,15,7.00
2015,02,17,10,16,7.10
2015,02,17,10,17,7.20
2015,02,17,10,18,7.30
2015,02,17,10,19,7.40
2015,02,17,10,20,7.50
2015,02,17,10,21,7.60
2015,02,17,10,22,7.70
2015,02,17,10,23,7.80
2015,02,17,10,24,7.90
2015,02,17,10,25,8.00
2015,02,17,10,26,8.10
2015,02,17,10,27,8.10
2015,02,17,10,28,8.20
2015,02,17,10,29,8.30
2015,02,17,10,30,8.40
2015,02,17,10,31,8.50
2015,02,17,10,32,8.60
2015,02,17,10,33,8.70
2015,02,17,10,34,8.70
2015,02,17,10,35,8.80
2015,02,17,10,36,8.80
2015,02,17,10,37,8.90
2015,02,17,10,38,8.90
2015,02,17,10,39,9.00
2015,02,17,10,40,9.10
2015,02,17,10,41,9.10
2015,02,17,10,42,9.20
2015,02,17,10,43,9.30
2015,02,17,10,44,9.30
2015,02,17,10,45,9.40
2015,02,17,10,46,9.50
2015,02,17,10,47,9.50
2015,02,17,10,48,9.60
2015,02,17,10,49,9.70
2015,02,17,10,50,9.70
2015,02,17,10,51,9.80
2015,02,17,10,52,9.90
2015,02,17,10,53,9.90
2015,02,17,10,54,10.00
2015,02,17,10,55,10.00
2015,02,17,10,56,10.10
2015,02,17,10,57,10.10
2015,02,17,10,58,10.20
2015,02,17,10,59,10.20
2015,02,17,11,00,10.20
2015,02,17,11,01,10.30
2015,02,17,11,02,10.30
2015,02,17,11,03,10.30
2015,02,17,11,04,10.30
2015,02,17,11,05,10.30
2015,02,17,11,06,10.30
2015,02,17,11,07,10.30
2015,02,17,11,08,10.40
2015,02,17,11,09,10.40
2015,02,17,11,10,10.40
2015,02,17,11,11,10.40
2015,02,17,11,12,10.50
2015,02,17,11,13,10.50
2015,02,17,11,14,10.60
2015,02,17,11,15,10.60
2015,02,17,11,16,10.70
2015,02,17,11,17,10.70
2015,02,17,11,18,10.80
2015,02,17,11,19,10.80
2015,02,17,11,20,10.90
2015,02,17,11,21,10.90
2015,02,17,11,22,10.80
2015,02,17,11,23,10.80
2015,02,17,11,24,10.80
2015,02,17,11,25,10.80
2015,02,17,11,26,10.80
2015,02,17,11,27,10.90
2015,02,17,11,28,10.90
2015,02,17,11,29,11.00
2015,02,17,11,30,11.00
2015,02,17,11,31,11.10
2015,02,17,11,32,11.10
2015,02,17,11,33,11.10
2015,02,17,11,34,11.20
2015,02,17,11,35,11.20
2015,02,17,11,36,11.30
2015,02,17,11,37,11.30
2015,02,17,11,38,11.30
2015,02,17,11,39,11.30
2015,02,17,11,40,11.30
2015,02,17,11,41,11.40
2015,02,17,11,42,11.30
2015,02,17,11,43,11.30
2015,02,17,11,44,11.30
2015,02,17,11,45,11.30
2015,02,17,11,46,11.40
2015,02,17,11,47,11.40
2015,02,17,11,48,11.40
2015,02,17,11,49,11.50
2015,02,17,11,50,11.50
2015,02,17,11,51,11.60
2015,02,17,11,52,11.60
2015,02,17,11,53,11.70
2015,02,17,11,54,11.80
2015,02,17,11,55,11.80
2015,02,17,11,56,11.80
2015,02,17,11,57,11.90
2015,02,17,11,58,11.90
2015,02,17,11,59,11.90
2015,02,17,12,00,11.90
2015,02,17,12,01,11.90
2015,02,17,12,02,11.90
2015,02,17,12,03,11.90
2015,02,17,12,04,11.90
2015,02,17,12,05,11.90
2015,02,17,12,06,12.00
2015,02,17,12,07,12.00
2015,02,17,12,08,12.00
2015,02,17,12,09,12.10
2015,02,17,12,10,12.10
2015,02,17,12,11,12.20
2015,02,17,12,12,12.20
2015,02,17,12,13,12.30
2015,02,17,12,14,12.30
2015,02,17,12,15,12.40
2015,02,17,12,16,12.40
2015,02,17,12,17,12.50
2015,02,17,12,18,12.40
2015,02,17,12,19,12.40
2015,02,17,12,20,12.40
2015,02,17,12,21,12.40
2015,02,17,12,22,12.40
2015,02,17,12,23,12.40
2015,02,17,12,24,12.40
2015,02,17,12,25,12.50
2015,02,17,12,26,12.50
2015,02,17,12,27,12.50
2015,02,17,12,28,12.50
2015,02,17,12,29,12.50
2015,02,17,12,30,12.60
2015,02,17,12,31,12.60
2015,02,17,12,32,12.60
2015,02,17,12,33,12.70
2015,02,17,12,34,12.70
2015,02,17,12,35,12.70
2015,02,17,12,36,12.70
2015,02,17,12,37,12.80
2015,02,17,12,38,12.80
2015,02,17,12,39,12.80
2015,02,17,12,40,12.80
2015,02,17,12,41,12.80
2015,02,17,12,42,12.80
2015,02,17,12,43,12.80
2015,02,17,12,44,12.80
2015,02,17,12,45,12.80
2015,02,17,12,46,12.80
2015,02,17,12,47,12.80
2015,02,17,12,48,12.80
2015,02,17,12,49,12.80
2015,02,17,12,50,12.90
2015,02,17,12,51,12.90
2015,02,17,12,52,13.00
2015,02,17,12,53,13.00
2015,02,17,12,54,13.00
2015,02,17,12,55,13.10
2015,02,17,12,56,13.10
2015,02,17,12,57,13.20
2015,02,17,12,58,13.30
2015,02,17,12,59,13.30
2015,02,17,13,00,13.30
2015,02,17,13,01,13.40
2015,02,17,13,02,13.30
2015,02,17,13,03,13.40
2015,02,17,13,04,13.40
2015,02,17,13,05,13.50
2015,02,17,13,06,13.50
2015,02,17,13,07,13.60
2015,02,17,13,08,13.60
2015,02,17,13,09,13.60
2015,02,17,13,10,13.60
2015,02,17,13,11,13.60
2015,02,17,13,12,13.70
2015,02,17,13,13,13.70
2015,02,17,13,14,13.70
2015,02,17,13,15,13.70
2015,02,17,13,16,13.60
2015,02,17,13,17,13.60
2015,02,17,13,18,13.70
2015,02,17,13,19,13.70
2015,02,17,13,20,13.70
2015,02,17,13,21,13.70
2015,02,17,13,22,13.70
2015,02,17,13,23,13.70
2015,02,17,13,24,13.70
2015,02,17,13,25,13.80
2015,02,17,13,26,13.80
2015,02,17,13,27,13.80
2015,02,17,13,28,13.80
2015,02,17,13,29,13.80
2015,02,17,13,30,13.80
2015,02,17,13,31,13.80
2015,02,17,13,32,13.80
2015,02,17,13,33,13.70
2015,02,17,13,34,13.70
2015,02,17,13,35,13.60
2015,02,17,13,36,13.60
2015,02,17,13,37,13.50
2015,02,17,13,38,13.40
2015,02,17,13,39,13.40
2015,02,17,13,40,13.40
2015,02,17,13,41,13.40
2015,02,17,13,42,13.40
2015,02,17,13,43,13.40
2015,02,17,13,44,13.40
2015,02,17,13,45,13.50
2015,02,17,13,46,13.60
2015,02,17,13,47,13.70
2015,02,17,13,48,13.70
2015,02,17,13,49,13.70
2015,02,17,13,50,13.80
2015,02,17,13,51,13.90
2015,02,17,13,52,13.90
2015,02,17,13,53,13.90
2015,02,17,13,54,13.90
2015,02,17,13,55,13.90
2015,02,17,13,56,13.90
2015,02,17,13,57,13.80
2015,02,17,13,58,13.80
2015,02,17,13,59,13.70
2015,02,17,14,00,13.70
2015,02,17,14,01,13.60
2015,02,17,14,02,13.60
2015,02,17,14,03,13.60
2015,02,17,14,04,13.60
2015,02,17,14,05,13.60
2015,02,17,14,06,13.70
2015,02,17,14,07,13.70
2015,02,17,14,08,13.70
2015,02,17,14,09,13.70
2015,02,17,14,10,13.70
2015,02,17,14,11,13.70
2015,02,17,14,12,13.80
2015,02,17,14,13,13.80
2015,02,17,14,14,13.80
2015,02,17,14,15,13.80
2015,02,17,14,16,13.80
2015,02,17,14,17,13.80
2015,02,17,14,18,13.70
2015,02,17,14,19,13.70
2015,02,17,14,20,13.70
2015,02,17,14,21,13.70
2015,02,17,14,22,13.70
2015,02,17,14,23,13.70
2015,02,17,14,24,13.70
2015,02,17,14,25,13.80
2015,02,17,14,26,13.80
2015,02,17,14,27,13.80
2015,02,17,14,28,13.80
2015,02,17,14,29,13.80
2015,02,17,14,30,13.80
2015,02,17,14,31,13.70
2015,02,17,14,32,13.70
2015,02,17,14,33,13.80
2015,02,17,14,34,13.80
2015,02,17,14,35,13.80
2015,02,17,14,36,13.80
2015,02,17,14,37,13.80
2015,02,17,14,38,13.80
2015,02,17,14,39,13.80
2015,02,17,14,40,13.80
2015,02,17,14,41,13.80
2015,02,17,14,42,13.80
2015,02,17,14,43,13.80
2015,02,17,14,44,13.80
2015,02,17,14,45,13.80
2015,02,17,14,46,13.80
2015,02,17,14,47,13.80
2015,02,17,14,48,13.80
2015,02,17,14,49,13.80
2015,02,17,14,50,13.90
2015,02,17,14,51,13.90
2015,02,17,14,52,13.90
2015,02,17,14,53,13.90
2015,02,17,14,54,13.90
2015,02,17,14,55,13.90
2015,02,17,14,56,13.90
2015,02,17,14,57,13.90
2015,02,17,14,58,13.90
2015,02,17,14,59,13.90
2015,02,17,15,00,13.90
2015,02,17,15,01,14.00
2015,02,17,15,02,14.00
2015,02,17,15,03,14.10
2015,02,17,15,04,14.10
2015,02,17,15,05,14.10
2015,02,17,15,06,14.20
2015,02,17,15,07,14.20
2015,02,17,15,08,14.20
2015,02,17,15,09,14.20
2015,02,17,15,10,14.10
2015,02,17,15,11,14.10
2015,02,17,15,12,14.10
2015,02,17,15,13,14.10
2015,02,17,15,14,14.10
2015,02,17,15,15,14.10
2015,02,17,15,16,14.00
2015,02,17,15,17,14.00
2015,02,17,15,18,14.00
2015,02,17,15,19,13.90
2015,02,17,15,20,13.90
2015,02,17,15,21,13.90
2015,02,17,15,22,13.90
2015,02,17,15,23,13.90
2015,02,17,15,24,13.90
2015,02,17,15,25,13.90
2015,02,17,15,26,13.90
2015,02,17,15,27,13.90
2015,02,17,15,28,13.90
2015,02,17,15,29,13.80
2015,02,17,15,30,13.80
2015,02,17,15,31,13.80
2015,02,17,15,32,13.80
2015,02,17,15,33,13.80
2015,02,17,15,34,13.80
2015,02,17,15,35,13.80
2015,02,17,15,36,13.80
2015,02,17,15,37,13.80
2015,02,17,15,38,13.80
2015,02,17,15,39,13.70
2015,02,17,15,40,13.70
2015,02,17,15,41,13.70
2015,02,17,15,42,13.70
2015,02,17,15,43,13.70
2015,02,17,15,44,13.70
2015,02,17,15,45,13.70
2015,02,17,15,46,13.70
2015,02,17,15,47,13.70
2015,02,17,15,48,13.70
2015,02,17,15,49,13.70
2015,02,17,15,50,13.70
2015,02,17,15,51,13.70
2015,02,17,15,52,13.70
2015,02,17,15,53,13.70
2015,02,17,15,54,13.70
2015,02,17,15,55,13.70
2015,02,17,15,56,13.70
2015,02,17,15,57,13.70
2015,02,17,15,58,13.60
2015,02,17,15,59,13.60
2015,02,17,16,00,13.60
2015,02,17,16,01,13.60
2015,02,17,16,02,13.50
2015,02,17,16,03,13.50
2015,02,17,16,04,13.50
2015,02,17,16,05,13.40
2015,02,17,16,06,13.40
2015,02,17,16,07,13.40
2015,02,17,16,08,13.30
2015,02,17,16,09,13.30
2015,02,17,16,10,13.30
2015,02,17,16,11,13.20
2015,02,17,16,12,13.20
2015,02,17,16,13,13.20
2015,02,17,16,14,13.10
2015,02,17,16,15,13.10
2015,02,17,16,16,13.10
2015,02,17,16,17,13.00
2015,02,17,16,18,13.00
2015,02,17,16,19,13.00
2015,02,17,16,20,12.90
2015,02,17,16,21,12.90
2015,02,17,16,22,12.90
2015,02,17,16,23,12.90
2015,02,17,16,24,12.80
2015,02,17,16,25,12.80
2015,02,17,16,26,12.80
2015,02,17,16,27,12.80
2015,02,17,16,28,12.80
2015,02,17,16,29,12.80
2015,02,17,16,30,12.80
2015,02,17,16,31,12.70
2015,02,17,16,32,12.70
2015,02,17,16,33,12.70
2015,02,17,16,34,12.70
2015,02,17,16,35,12.70
2015,02,17,16,36,12.70
2015,02,17,16,37,12.60
2015,02,17,16,38,12.60
2015,02,17,16,39,12.60
2015,02,17,16,40,12.60
2015,02,17,16,41,12.60
2015,02,17,16,42,12.60
2015,02,17,16,43,12.50
2015,02,17,16,44,12.50
2015,02,17,16,45,12.50
2015,02,17,16,46,12.40
2015,02,17,16,47,12.40
2015,02,17,16,48,12.40
2015,02,17,16,49,12.30
2015,02,17,16,50,12.30
2015,02,17,16,51,12.30
2015,02,17,16,52,12.30
2015,02,17,16,53,12.30
2015,02,17,16,54,12.20
2015,02,17,16,55,12.20
2015,02,17,16,56,12.20
2015,02,17,16,57,12.10
2015,02,17,16,58,12.10
2015,02,17,16,59,12.00
2015,02,17,17,00,11.90
2015,02,17,17,01,11.90
2015,02,17,17,02,11.90
2015,02,17,17,03,11.90
2015,02,17,17,04,11.90
2015,02,17,17,05,11.90
2015,02,17,17,06,11.80
2015,02,17,17,07,11.80
2015,02,17,17,08,11.80
2015,02,17,17,09,11.80
2015,02,17,17,10,11.70
2015,02,17,17,11,11.70
2015,02,17,17,12,11.60
2015,02,17,17,13,11.50
2015,02,17,17,14,11.50
2015,02,17,17,15,11.40
2015,02,17,17,16,11.40
2015,02,17,17,17,11.30
2015,02,17,17,18,11.30
2015,02,17,17,19,11.20
2015,02,17,17,20,11.20
2015,02,17,17,21,11.20
2015,02,17,17,22,11.10
2015,02,17,17,23,11.10
2015,02,17,17,24,11.00